サイディング・スプリング彗星

389P/Siding Spring (2019)

English version
Home page
Updated on June 14, 2021

---------------------------------------------------------------------

・ プロフィール

符号 389P/2019 S1
検出日 2019年9月25日
検出光度 20.5等
検出者 G. V. Williams and by R. Weryk (Pan-STARRS 1 telescope, Haleakala)

・ 写真集

・ 軌道要素

Epoch 2019 Dec. 23.0 TT = JDT 2458840.5                                         
T 2019 Dec. 29.28013 TT                                 Williams                
q   1.6633322            (2000.0)            P               Q                  
n   0.07382747     Peri.  249.29562     +0.82686278     -0.52018866             
a   5.6276110      Node   218.83750     -0.29819482     -0.72779451             
e   0.7044337      Incl.  160.06862     -0.47684148     -0.44689922             
P  13.4                                                                         
From 81 observations 2006 Sept. 1-2019 Nov. 15, mean residual 0".5.             

・ 光度変化

        m1 = 16.0 + 5 logΔ + 10.0 log r

---------------------------------------------------------------------

軌道要素はM.P.E.C. 2019-X94に掲載されたものです。
光度グラフはComet for Windowsで作成したものです。

---------------------------------------------------------------------

Copyright(C) Seiichi Yoshida (comet@aerith.net). All rights reserved.